Temp
55 55 52 52 50 52 51 54 54 53 51 54 54 54 53 55 53 53 53 54 55 57 57 56 55 55 56 57 57 57 57 57 57 56 56 58 57 59 61 61 61 62 63 62 61 58 57 55 59 63 64 63 61 63 64 65 65 64 63 63 65 64 64
54 53 52 55 53 53 52 53 54 52 51 51 54 55 52 53 56 53 51 52 53 55 57 55 54 55 54 54 55 56 55 55 56 56 55 55 56 57 58 59 60 60 61 61 62 61 58 56 57 58 60 63 62 62 63 64 66 65 65 64 65 66 65
53 52 52 52 52 51 52 52 51 52 51 52 51 52 54 52 52 53 52 52 52 55 55 53 53 53 53 53 53 54 54 54 54 55 54 54 55 56 57 57 56 57 59 60 60 60 60 59 56 57 59 58 58 61 61 62 63 65 66 65 64 66 66
52 53 52 50 51 51 51 51 51 50 51 51 50 51 52 52 53 55 52 52 53 55 53 52 52 52 52 52 52 52 52 52 52 53 54 54 54 54 54 55 55 56 56 55 57 58 58 57 57 58 59 60 60 60 64 65 65 67 68 65 65 66 67
54 54 54 53 52 52 51 52 51 51 51 51 50 51 52 51 52 50 52 51 53 51 52 51 52 52 52 52 52 52 51 50 51 52 50 51 51 52 53 54 54 55 56 56 57 57 57 57 57 57 58 61 62 62 65 63 65 65 66 66 67 67 68
54 55 54 53 52 52 51 51 50 50 50 53 51 52 50 50 52 50 51 52 51 52 50 51 51 50 51 51 51 50 50 50 50 50 50 49 49 51 51 52 53 53 54 55 57 57 58 58 58 55 57 58 56 58 61 62 61 63 66 66 67 68 68
54 55 54 54 53 53 52 52 52 52 51 51 51 51 52 51 51 52 52 51 51 51 52 51 50 51 50 51 50 49 49 49 49 49 49 49 49 50 50 50 51 51 52 54 55 56 56 56 55 55 55 57 57 57 60 59 61 61 63 66 68 68 67
55 55 55 54 53 53 51 53 52 51 51 51 52 52 51 51 50 49 50 50 49 49 50 50 52 50 51 51 51 50 49 49 49 49 48 48 50 49 48 49 50 51 51 52 54 54 55 55 55 56 55 53 55 56 56 57 58 59 62 65 66 66 66
56 55 54 54 53 54 53 53 53 51 52 50 49 50 50 50 50 50 50 48 49 50 50 50 49 49 49 50 50 49 48 52 49 48 48 48 49 48 49 49 49 49 50 52 53 53 54 55 55 56 56 55 52 52 55 55 56 57 61 62 64 66 67
54 54 55 54 53 53 53 53 52 52 50 50 51 50 50 48 48 48 49 49 48 48 49 49 50 49 49 48 48 48 48 48 49 48 48 48 48 48 48 49 49 49 49 50 51 53 53 54 54 55 56 55 55 52 52 53 56 55 56 59 59 59 64
56 56 55 55 53 53 52 52 51 51 51 52 52 53 50 49 49 52 47 49 47 49 49 48 48 48 48 48 47 47 47 47 48 47 48 49 47 48 49 48 48 48 48 49 50 50 51 52 52 53 54 56 56 54 54 52 54 59 58 56 59 60 61
55 55 55 55 53 53 53 52 52 52 50 50 53 51 49 49 48 47 47 48 48 48 47 47 48 48 48 48 48 48 47 47 47 47 46 48 48 49 47 47 46 47 48 48 48 49 50 51 52 51 52 53 54 54 54 54 52 58 61 58 57 59 59
55 55 54 54 53 53 53 53 52 50 51 52 51 50 49 49 48 47 47 48 48 47 47 47 46 46 45 46 45 47 46 45 47 46 46 46 48 48 47 46 46 47 47 48 47 48 49 49 50 50 51 51 52 53 54 53 52 54 60 59 60 60 61
54 54 53 53 54 53 53 53 52 53 51 51 50 49 49 48 47 48 47 48 48 47 47 47 46 46 45 46 45 45 44 45 46 46 46 46 46 46 46 46 46 47 47 47 47 48 48 48 48 50 50 50 51 53 53 53 51 52 57 60 58 58 59
55 54 53 53 53 52 52 52 52 51 52 51 50 50 49 48 47 47 47 47 47 46 46 45 44 44 45 45 44 46 46 44 44 45 44 45 46 47 46 45 46 47 47 47 46 47 48 48 47 47 48 49 49 51 54 53 52 51 51 56 56 58 58
54 53 53 52 53 52 52 51 51 52 51 50 49 50 50 49 48 46 46 46 45 46 45 44 44 45 44 44 44 44 45 44 44 45 45 46 46 46 46 46 47 47 48 46 46 47 47 47 47 47 47 48 48 49 51 54 53 51 52 53 56 55 56
53 53 53 53 52 52 51 51 51 51 51 49 49 49 49 48 47 46 46 45 45 45 45 44 44 44 45 44 44 44 43 43 43 44 45 46 46 46 47 46 47 47 47 46 46 47 47 48 48 49 48 48 48 48 49 52 54 51 50 49 52 53 56
53 53 53 52 52 51 51 51 51 51 49 49 49 48 47 46 46 45 46 44 44 43 43 43 44 44 43 43 43 43 43 43 44 44 45 46 48 47 47 47 47 47 46 47 47 47 48 48 51 51 50 50 48 48 49 49 50 51 49 48 49 52 54
53 53 53 52 51 51 51 51 50 50 50 50 48 48 48 46 47 45 44 44 44 43 42 42 42 43 43 43 43 43 43 43 44 44 45 45 46 46 47 47 48 49 50 50 50 50 49 49 51 50 50 51 51 50 47 45 46 47 48 48 49 48 51
54 54 53 52 51 51 51 50 50 49 49 49 48 46 45 46 45 45 44 44 44 44 43 42 42 42 42 42 42 42 42 42 43 43 44 45 45 45 46 47 48 49 50 51 51 51 51 50 50 50 51 51 52 51 49 47 46 45 45 45 46 47 47
54 54 52 51 51 50 50 50 50 49 48 47 47 46 45 46 45 44 44 44 43 43 42 42 41 40 41 41 42 42 42 43 44 43 44 44 45 46 46 47 47 48 49 49 50 52 52 51 51 50 51 50 50 49 48 48 47 46 44 44 44 44 45
51 51 51 51 50 50 50 49 49 48 48 47 47 46 46 45 44 42 41 42 43 42 42 43 42 43 42 41 41 41 42 43 43 43 43 43 44 45 45 45 46 46 49 51 49 48 48 48 48 48 48 48 47 47 46 47 47 47 45 45 45 45 44
49 50 50 51 51 50 49 48 48 47 47 46 46 45 44 43 43 42 42 40 40 42 42 41 46 46 45 43 41 42 43 42 42 42 42 42 43 43 44 44 46 49 49 48 47 46 45 45 46 47 48 49 48 46 45 45 44 45 45 44 44 44 43
49 49 50 49 49 50 49 49 48 46 45 45 45 45 43 41 40 41 42 41 39 40 41 43 45 41 41 42 42 41 41 41 41 41 41 41 41 42 43 43 43 46 48 47 47 45 44 44 44 43 44 45 46 46 46 44 44 44 43 43 43 43 43
51 51 51 51 50 50 49 48 47 45 44 44 43 42 41 41 41 41 40 39 38 40 41 45 42 42 41 41 43 42 40 40 40 40 40 40 41 41 41 42 43 44 45 45 45 45 45 44 43 43 43 42 42 42 43 45 45 44 44 43 42 43 43
52 51 51 50 50 50 49 48 46 44 45 44 41 41 41 42 40 40 40 39 38 39 40 42 42 41 41 41 41 42 40 40 40 40 40 40 40 41 41 42 42 42 43 47 48 46 45 45 44 44 43 43 43 43 41 41 42 45 47 45 44 43 44
51 50 50 49 48 48 47 46 45 45 44 42 40 40 41 41 40 39 38 38 38 37 37 41 40 41 41 40 40 41 40 40 40 40 41 41 41 41 41 41 41 42 42 43 43 43 43 43 43 43 44 44 44 45 43 42 41 41 43 46 46 44 46
49 48 48 49 48 48 47 45 44 44 44 42 41 41 40 40 39 40 39 37 36 36 39 42 40 40 40 40 41 41 40 40 40 40 40 40 40 41 41 41 41 41 41 41 42 43 42 42 42 42 42 42 43 44 44 45 45 46 45 45 46 47 47
48 48 49 48 48 47 44 45 43 42 40 38 39 39 37 39 39 37 37 36 36 36 37 39 39 39 40 40 41 41 39 39 39 39 39 40 40 40 40 40 40 40 41 40 42 41 42 43 42 41 40 41 41 42 43 45 45 46 47 48 48 48 48
49 49 49 48 46 44 42 41 42 42 41 39 39 39 39 38 38 37 36 36 35 35 35 38 39 40 40 40 40 39 39 39 38 38 38 39 39 40 40 40 40 39 40 40 41 40 40 41 40 40 39 39 40 40 41 43 44 43 43 43 43 43 44
48 48 47 46 44 42 42 42 42 42 42 40 40 40 40 39 37 37 36 35 35 35 35 38 40 40 40 40 40 39 38 37 37 37 37 38 38 39 40 43 44 42 41 41 41 39 39 40 39 39 39 38 38 39 40 42 44 44 44 43 42 42 42
48 47 46 44 43 42 43 43 41 41 41 41 42 40 40 39 37 36 36 36 42 39 35 37 40 39 40 40 40 39 38 37 36 36 36 36 37 38 39 41 43 43 42 42 40 40 39 40 39 39 39 38 37 38 40 42 42 42 43 44 44 44 43
46 45 43 42 42 42 42 41 40 39 38 40 40 38 39 38 37 37 35 36 36 36 35 35 38 39 40 40 40 39 38 36 35 35 36 37 37 38 40 40 41 40 39 39 39 38 38 39 39 40 39 38 37 37 41 42 42 42 42 43 43 44 45
44 43 43 43 43 42 42 41 39 39 37 36 36 36 36 36 35 35 33 34 33 32 35 35 37 39 39 40 39 39 36 36 36 36 37 37 37 37 37 38 39 40 39 39 39 38 39 38 39 39 39 38 39 40 41 41 42 41 42 42 42 43 44
45 44 44 44 42 40 38 39 40 38 35 34 35 35 34 34 33 32 30 30 33 32 35 40 36 39 39 39 39 39 37 37 38 38 37 37 37 37 37 38 38 39 38 38 38 38 38 38 38 39 39 39 38 38 39 41 41 41 41 41 41 42 43
44 45 44 42 41 38 36 37 35 35 34 33 35 34 32 30 31 31 29 30 30 31 32 35 39 38 39 39 38 38 38 37 37 39 37 36 36 37 38 38 39 39 38 38 38 37 38 37 38 38 38 37 37 37 38 39 39 38 39 39 39 39 41
45 44 43 42 41 39 36 35 35 36 34 35 35 33 30 30 30 31 31 30 32 31 32 31 35 38 38 38 38 38 37 37 37 37 37 36 37 37 37 37 38 38 37 37 37 37 37 37 37 37 37 37 37 37 38 37 37 37 37 37 37 38 39
MSLP
1017.46 1017.54 1017.70 1017.78 1018.02 1018.06 1018.02 1018.14 1018.18 1018.22 1018.30 1018.26 1018.30 1018.38 1018.50 1018.50 1018.58 1018.62 1018.62 1018.66 1018.78 1018.86 1018.86 1018.98 1019.02 1019.10 1019.06 1019.10 1019.06 1019.10 1019.06 1019.06 1019.06 1019.22 1019.34 1019.34 1019.42 1019.30 1018.98 1018.98 1018.98 1018.98 1018.94 1019.02 1019.10 1019.50 1019.50 1019.50 1018.50 1017.50 1017.34 1017.30 1017.30 1017.34 1017.34 1017.26 1017.22 1017.26 1017.42 1017.50 1017.50 1017.54 1017.58
1017.38 1017.50 1017.70 1017.82 1017.90 1018.06 1017.98 1018.14 1018.18 1018.26 1018.30 1018.34 1018.30 1018.34 1018.50 1018.58 1018.62 1018.70 1018.70 1018.74 1018.82 1018.94 1019.10 1019.26 1019.30 1019.26 1019.30 1019.30 1019.30 1019.26 1019.34 1019.38 1019.34 1019.38 1019.42 1019.66 1019.62 1019.62 1019.42 1019.26 1019.18 1019.14 1019.06 1018.98 1018.98 1019.06 1019.30 1019.38 1018.98 1018.82 1018.26 1017.54 1017.46 1017.30 1017.26 1017.26 1017.14 1017.06 1017.02 1017.10 1017.18 1017.18 1017.26
1017.50 1017.70 1017.78 1017.90 1017.94 1018.06 1017.98 1018.10 1018.22 1018.26 1018.26 1018.30 1018.38 1018.38 1018.42 1018.50 1018.58 1018.66 1018.78 1018.82 1018.90 1019.02 1019.14 1019.34 1019.42 1019.46 1019.50 1019.50 1019.54 1019.54 1019.58 1019.62 1019.66 1019.58 1019.66 1019.82 1019.86 1019.78 1019.70 1019.62 1019.58 1019.42 1019.18 1019.06 1019.02 1019.02 1019.02 1019.10 1019.30 1019.02 1018.74 1018.78 1018.62 1017.54 1017.26 1017.26 1017.18 1017.06 1016.98 1016.90 1016.94 1016.98 1016.98
1017.30 1017.54 1017.82 1018.02 1018.06 1018.14 1018.10 1018.10 1018.14 1018.22 1018.38 1018.34 1018.42 1018.46 1018.54 1018.54 1018.54 1018.66 1018.74 1018.86 1018.94 1019.02 1019.14 1019.26 1019.38 1019.50 1019.62 1019.66 1019.70 1019.66 1019.70 1019.78 1019.86 1019.82 1019.78 1019.82 1019.90 1019.94 1019.90 1019.86 1019.82 1019.78 1019.82 1019.78 1019.58 1019.34 1019.26 1019.14 1018.98 1018.74 1018.66 1018.50 1018.46 1018.18 1017.30 1017.06 1017.02 1016.82 1016.78 1016.70 1016.74 1016.70 1016.66
1016.98 1017.34 1017.50 1017.70 1017.90 1017.90 1018.02 1018.06 1018.14 1018.22 1018.26 1018.46 1018.54 1018.54 1018.58 1018.62 1018.62 1018.70 1018.78 1018.82 1018.94 1019.06 1019.14 1019.26 1019.38 1019.46 1019.58 1019.62 1019.66 1019.70 1019.78 1019.86 1019.90 1019.90 1019.94 1019.94 1019.94 1020.02 1020.02 1020.02 1020.06 1019.94 1019.90 1019.86 1019.74 1019.58 1019.46 1019.26 1019.10 1018.90 1018.82 1018.38 1018.10 1017.82 1017.22 1017.06 1016.78 1016.74 1016.62 1016.54 1016.38 1016.34 1016.22
1016.82 1017.02 1017.26 1017.50 1017.74 1017.82 1017.98 1018.06 1018.14 1018.14 1018.26 1018.26 1018.38 1018.50 1018.58 1018.70 1018.74 1018.78 1018.78 1018.86 1018.98 1019.06 1019.18 1019.22 1019.30 1019.38 1019.46 1019.62 1019.70 1019.74 1019.78 1019.78 1019.86 1019.86 1019.90 1019.98 1020.02 1020.06 1020.14 1020.10 1020.10 1020.10 1020.10 1019.94 1019.82 1019.70 1019.38 1019.22 1019.14 1019.06 1018.66 1018.58 1018.66 1018.10 1017.50 1017.26 1017.06 1016.50 1016.30 1016.22 1016.14 1016.10 1016.02
1016.66 1016.90 1017.14 1017.26 1017.54 1017.66 1017.82 1017.82 1017.86 1017.94 1018.10 1018.14 1018.18 1018.30 1018.38 1018.66 1018.78 1018.78 1018.90 1018.98 1019.10 1019.14 1019.14 1019.22 1019.30 1019.38 1019.46 1019.54 1019.66 1019.70 1019.78 1019.94 1019.94 1019.94 1019.98 1019.98 1020.02 1020.02 1020.06 1020.06 1020.06 1020.14 1020.10 1019.98 1019.90 1019.78 1019.70 1019.54 1019.38 1019.26 1019.02 1018.62 1018.38 1018.18 1017.66 1017.38 1016.94 1017.06 1016.30 1016.02 1015.86 1015.82 1015.78
1016.34 1016.70 1016.86 1017.06 1017.26 1017.50 1017.70 1017.70 1017.74 1017.90 1017.98 1018.06 1018.10 1018.10 1018.38 1018.46 1018.66 1018.78 1018.90 1019.02 1019.14 1019.18 1019.18 1019.18 1019.30 1019.42 1019.54 1019.58 1019.66 1019.78 1019.82 1019.94 1019.98 1020.02 1020.10 1020.10 1020.10 1020.14 1020.10 1020.10 1020.10 1020.06 1020.06 1020.02 1019.94 1019.90 1019.78 1019.70 1019.66 1019.42 1019.26 1019.06 1018.42 1018.06 1017.86 1017.42 1017.18 1017.14 1016.78 1016.14 1015.90 1015.78 1015.70
1016.14 1016.42 1016.70 1016.98 1017.14 1017.18 1017.30 1017.46 1017.58 1017.74 1017.82 1017.90 1018.10 1018.22 1018.30 1018.42 1018.54 1018.66 1018.78 1018.94 1019.02 1019.06 1019.10 1019.14 1019.26 1019.34 1019.50 1019.62 1019.70 1019.82 1019.82 1020.02 1020.02 1020.10 1020.22 1020.22 1020.18 1020.18 1020.14 1020.14 1020.14 1020.10 1020.02 1019.98 1019.90 1019.82 1019.70 1019.62 1019.50 1019.34 1019.22 1019.06 1018.90 1018.42 1017.90 1017.70 1017.30 1016.98 1016.38 1016.42 1015.82 1015.58 1015.50
1016.06 1016.22 1016.38 1016.62 1016.82 1017.14 1017.22 1017.30 1017.34 1017.50 1017.74 1017.90 1017.94 1018.14 1018.26 1018.46 1018.50 1018.58 1018.70 1018.86 1019.02 1019.06 1019.06 1019.18 1019.26 1019.34 1019.46 1019.58 1019.66 1019.74 1019.78 1020.10 1020.10 1020.14 1020.22 1020.18 1020.18 1020.22 1020.14 1020.10 1020.10 1020.10 1020.02 1019.94 1019.86 1019.78 1019.66 1019.54 1019.46 1019.30 1019.14 1019.02 1018.86 1018.62 1018.26 1017.78 1017.30 1017.06 1016.50 1016.38 1016.54 1015.74 1015.42
1015.78 1015.94 1016.14 1016.30 1016.66 1016.98 1017.18 1017.26 1017.38 1017.50 1017.58 1017.70 1017.78 1017.98 1018.14 1018.30 1018.42 1018.58 1018.70 1018.74 1018.78 1018.86 1018.94 1019.06 1019.18 1019.26 1019.42 1019.46 1019.54 1019.62 1019.74 1019.90 1019.94 1020.10 1020.14 1020.18 1020.14 1020.18 1020.14 1020.14 1020.10 1020.10 1019.98 1019.94 1019.86 1019.78 1019.70 1019.58 1019.46 1019.34 1019.22 1019.02 1018.86 1018.74 1018.30 1017.98 1017.18 1016.78 1016.70 1016.38 1016.30 1016.02 1015.50
1015.74 1015.82 1015.98 1016.18 1016.46 1016.66 1016.86 1017.06 1017.10 1017.18 1017.46 1017.62 1017.70 1017.86 1018.06 1018.22 1018.38 1018.54 1018.58 1018.66 1018.78 1018.82 1018.94 1018.98 1019.02 1019.14 1019.30 1019.30 1019.38 1019.50 1019.58 1019.74 1019.82 1019.86 1019.94 1020.02 1020.02 1020.06 1020.10 1020.06 1020.06 1020.02 1019.94 1019.86 1019.78 1019.70 1019.62 1019.50 1019.38 1019.26 1019.14 1019.02 1018.90 1018.82 1018.58 1018.14 1017.62 1016.14 1016.14 1016.22 1016.02 1015.78 1015.74
1015.46 1015.66 1015.86 1016.06 1016.34 1016.38 1016.54 1016.78 1016.98 1017.22 1017.22 1017.46 1017.54 1017.70 1017.86 1018.06 1018.22 1018.34 1018.54 1018.66 1018.78 1018.90 1018.94 1018.94 1019.06 1019.14 1019.26 1019.30 1019.38 1019.42 1019.46 1019.58 1019.58 1019.62 1019.70 1019.82 1019.86 1019.86 1019.86 1019.90 1019.90 1019.86 1019.78 1019.70 1019.66 1019.58 1019.50 1019.38 1019.30 1019.22 1019.10 1018.98 1018.82 1018.62 1018.42 1018.26 1017.78 1016.90 1016.18 1016.18 1015.86 1015.66 1015.58
1015.34 1015.54 1015.78 1015.90 1015.98 1016.14 1016.34 1016.54 1016.70 1016.78 1017.18 1017.26 1017.42 1017.58 1017.74 1017.90 1018.10 1018.22 1018.42 1018.62 1018.74 1018.82 1018.90 1018.94 1019.06 1019.22 1019.30 1019.30 1019.38 1019.46 1019.42 1019.42 1019.42 1019.46 1019.58 1019.62 1019.66 1019.66 1019.62 1019.66 1019.66 1019.62 1019.58 1019.54 1019.46 1019.46 1019.38 1019.26 1019.18 1019.14 1019.06 1018.94 1018.78 1018.50 1018.34 1018.14 1017.90 1017.30 1016.46 1016.10 1015.98 1015.82 1015.54
1014.98 1015.30 1015.46 1015.70 1015.78 1015.94 1016.14 1016.34 1016.54 1016.86 1016.90 1017.14 1017.26 1017.38 1017.58 1017.82 1017.98 1018.22 1018.38 1018.54 1018.74 1018.90 1019.02 1019.14 1019.26 1019.38 1019.34 1019.34 1019.34 1019.42 1019.46 1019.46 1019.46 1019.50 1019.58 1019.54 1019.50 1019.50 1019.46 1019.46 1019.46 1019.46 1019.34 1019.30 1019.26 1019.26 1019.18 1019.14 1019.10 1019.06 1018.98 1018.90 1018.82 1018.58 1018.18 1018.10 1017.82 1017.62 1017.06 1016.30 1016.14 1015.82 1015.74
1014.82 1015.02 1015.18 1015.34 1015.50 1015.66 1015.94 1016.18 1016.42 1016.54 1016.82 1017.06 1017.26 1017.26 1017.46 1017.70 1017.94 1018.18 1018.34 1018.54 1018.74 1018.86 1019.02 1019.10 1019.26 1019.30 1019.30 1019.42 1019.42 1019.46 1019.50 1019.54 1019.54 1019.54 1019.58 1019.54 1019.50 1019.46 1019.42 1019.26 1019.18 1019.22 1019.18 1019.14 1019.06 1019.02 1018.98 1018.98 1018.94 1018.94 1018.90 1018.78 1018.66 1018.46 1018.18 1018.02 1017.78 1017.46 1017.10 1016.50 1016.22 1016.06 1015.82
1014.62 1014.86 1015.02 1015.14 1015.26 1015.50 1015.78 1016.02 1016.30 1016.42 1016.66 1016.98 1017.18 1017.38 1017.46 1017.62 1017.86 1018.06 1018.26 1018.50 1018.66 1018.78 1018.94 1019.06 1019.10 1019.18 1019.22 1019.34 1019.42 1019.50 1019.54 1019.58 1019.62 1019.66 1019.66 1019.58 1019.50 1019.46 1019.34 1019.22 1019.06 1019.02 1019.02 1018.98 1018.90 1018.90 1018.82 1018.78 1018.74 1018.70 1018.66 1018.58 1018.46 1018.34 1018.14 1017.98 1017.78 1017.90 1017.74 1017.54 1016.70 1016.66 1016.18
1014.34 1014.62 1014.74 1014.98 1015.10 1015.38 1015.62 1015.90 1016.18 1016.30 1016.62 1016.94 1017.14 1017.34 1017.54 1017.62 1017.78 1018.02 1018.18 1018.34 1018.58 1018.74 1018.82 1018.94 1018.98 1019.14 1019.26 1019.38 1019.42 1019.46 1019.50 1019.50 1019.50 1019.50 1019.54 1019.54 1019.46 1019.38 1019.22 1019.06 1018.90 1018.90 1018.90 1018.86 1018.74 1018.70 1018.66 1018.62 1018.50 1018.42 1018.38 1018.30 1018.26 1018.18 1018.10 1018.06 1018.02 1017.98 1017.86 1017.62 1016.98 1016.58 1016.38
1014.06 1014.18 1014.54 1014.90 1015.14 1015.34 1015.54 1015.78 1016.06 1016.30 1016.46 1016.74 1017.14 1017.30 1017.42 1017.66 1017.74 1017.90 1018.06 1018.30 1018.50 1018.66 1018.82 1018.94 1019.02 1019.10 1019.18 1019.26 1019.38 1019.42 1019.46 1019.46 1019.46 1019.42 1019.38 1019.38 1019.34 1019.30 1019.22 1019.02 1018.78 1018.74 1018.66 1018.62 1018.50 1018.42 1018.42 1018.38 1018.26 1018.22 1018.14 1018.06 1017.98 1017.94 1017.94 1017.98 1017.98 1017.94 1017.86 1017.58 1017.26 1016.66 1016.46
1013.38 1013.78 1014.14 1014.62 1015.14 1015.46 1015.50 1015.70 1015.94 1016.22 1016.54 1016.70 1017.10 1017.38 1017.54 1017.58 1017.66 1017.78 1018.06 1018.30 1018.50 1018.66 1018.78 1018.90 1019.02 1019.10 1019.22 1019.26 1019.30 1019.34 1019.34 1019.34 1019.34 1019.30 1019.26 1019.18 1019.14 1019.10 1019.02 1018.94 1018.78 1018.62 1018.50 1018.38 1018.30 1018.22 1018.14 1018.10 1018.10 1018.02 1017.98 1017.86 1017.74 1017.70 1017.70 1017.78 1017.82 1017.86 1017.82 1017.70 1017.30 1016.90 1016.58
1012.98 1013.42 1013.90 1014.34 1014.86 1015.26 1015.42 1015.58 1015.86 1016.18 1016.46 1016.70 1017.10 1017.34 1017.50 1017.54 1017.70 1017.82 1017.98 1018.18 1018.38 1018.62 1018.82 1019.02 1019.14 1019.18 1019.22 1019.26 1019.30 1019.34 1019.34 1019.34 1019.26 1019.22 1019.10 1019.02 1018.98 1018.90 1018.86 1018.78 1018.70 1018.62 1018.50 1018.38 1018.26 1018.06 1017.98 1017.86 1017.82 1017.78 1017.70 1017.74 1017.74 1017.74 1017.66 1017.54 1017.54 1017.58 1017.66 1017.58 1017.38 1016.94 1016.54
1013.46 1013.46 1013.78 1014.02 1014.30 1014.86 1015.22 1015.46 1015.82 1016.10 1016.30 1016.58 1016.94 1017.18 1017.42 1017.58 1017.74 1017.86 1018.02 1018.18 1018.42 1018.70 1018.82 1018.94 1019.06 1019.14 1019.22 1019.26 1019.34 1019.34 1019.34 1019.30 1019.22 1019.14 1019.06 1018.94 1018.86 1018.74 1018.66 1018.62 1018.50 1018.42 1018.26 1018.10 1018.02 1018.02 1017.98 1017.98 1017.94 1017.78 1017.62 1017.74 1017.70 1017.70 1017.58 1017.46 1017.30 1017.22 1017.18 1017.18 1016.98 1016.74 1016.50
1013.98 1013.86 1013.70 1013.70 1013.94 1014.42 1015.06 1015.46 1015.78 1015.98 1016.18 1016.42 1016.78 1017.10 1017.34 1017.50 1017.58 1017.78 1018.06 1018.34 1018.54 1018.62 1018.74 1018.90 1019.02 1019.10 1019.22 1019.30 1019.34 1019.38 1019.38 1019.34 1019.22 1019.10 1018.98 1018.86 1018.74 1018.66 1018.54 1018.42 1018.30 1018.10 1017.98 1017.86 1017.78 1017.70 1017.66 1017.62 1017.62 1017.66 1017.46 1017.42 1017.38 1017.50 1017.46 1017.38 1017.26 1017.14 1016.98 1016.82 1016.70 1016.58 1016.42
1013.62 1014.06 1014.22 1014.22 1014.78 1014.98 1015.18 1015.58 1015.82 1015.98 1016.22 1016.46 1016.74 1017.06 1017.34 1017.46 1017.62 1017.82 1017.98 1018.22 1018.42 1018.62 1018.78 1018.86 1018.94 1019.02 1019.06 1019.10 1019.18 1019.26 1019.30 1019.26 1019.22 1019.10 1019.02 1018.86 1018.70 1018.54 1018.38 1018.30 1018.18 1018.02 1017.86 1017.70 1017.58 1017.46 1017.34 1017.26 1017.22 1017.22 1017.18 1017.18 1017.18 1017.22 1017.10 1017.06 1016.90 1016.94 1016.90 1016.66 1016.38 1016.34 1016.10
1012.90 1013.34 1013.74 1013.54 1013.94 1014.70 1015.22 1015.50 1015.78 1016.06 1016.26 1016.46 1016.82 1017.14 1017.30 1017.50 1017.70 1017.78 1017.86 1018.06 1018.26 1018.50 1018.70 1018.74 1018.74 1018.74 1018.82 1018.90 1018.94 1019.02 1019.10 1019.10 1019.02 1018.94 1018.82 1018.66 1018.50 1018.34 1018.18 1018.06 1017.90 1017.78 1017.62 1017.50 1017.38 1017.22 1017.10 1016.98 1016.90 1016.82 1016.78 1016.78 1016.74 1016.78 1016.86 1016.78 1016.50 1016.42 1016.42 1016.42 1016.18 1015.94 1015.86
1012.42 1012.74 1013.10 1013.42 1013.70 1014.38 1014.90 1015.22 1015.70 1015.98 1015.98 1016.38 1016.86 1017.06 1017.34 1017.54 1017.70 1017.78 1017.82 1017.94 1018.18 1018.42 1018.46 1018.54 1018.50 1018.54 1018.58 1018.62 1018.66 1018.70 1018.82 1018.82 1018.74 1018.62 1018.50 1018.38 1018.22 1018.06 1017.90 1017.74 1017.58 1017.46 1017.34 1017.18 1016.98 1016.90 1016.82 1016.66 1016.54 1016.42 1016.38 1016.30 1016.26 1016.26 1016.30 1016.30 1016.30 1016.18 1015.90 1015.82 1015.70 1015.42 1015.38
1012.14 1012.54 1012.94 1013.26 1013.66 1014.22 1014.74 1015.18 1015.50 1015.74 1016.02 1016.46 1016.74 1017.14 1017.38 1017.50 1017.70 1017.74 1017.82 1017.90 1017.98 1018.14 1018.22 1018.34 1018.38 1018.34 1018.38 1018.38 1018.38 1018.42 1018.46 1018.46 1018.38 1018.30 1018.22 1018.06 1017.90 1017.70 1017.54 1017.38 1017.22 1017.02 1016.98 1016.90 1016.78 1016.70 1016.62 1016.46 1016.30 1016.14 1016.02 1015.94 1015.82 1015.70 1015.66 1015.66 1015.66 1015.66 1015.70 1015.42 1015.18 1014.90 1014.54
1012.06 1012.58 1012.86 1012.94 1013.30 1014.02 1014.46 1014.94 1015.14 1015.22 1015.42 1015.90 1016.38 1016.78 1017.14 1017.34 1017.50 1017.62 1017.78 1017.78 1017.74 1017.90 1018.10 1018.14 1018.22 1018.26 1018.30 1018.26 1018.18 1018.18 1018.22 1018.18 1018.10 1017.98 1017.86 1017.70 1017.54 1017.34 1017.18 1017.02 1016.86 1016.70 1016.62 1016.62 1016.54 1016.46 1016.34 1016.22 1016.06 1015.82 1015.66 1015.50 1015.42 1015.30 1015.22 1015.14 1015.14 1015.10 1015.06 1014.98 1014.74 1014.42 1014.22
1011.94 1012.06 1012.18 1012.46 1012.86 1013.50 1014.18 1014.54 1014.74 1015.14 1015.54 1016.10 1016.46 1016.74 1017.02 1017.10 1017.26 1017.42 1017.54 1017.58 1017.66 1017.82 1017.98 1018.10 1018.26 1018.34 1018.26 1018.14 1018.02 1018.06 1018.02 1017.90 1017.78 1017.66 1017.46 1017.30 1017.06 1016.90 1016.78 1016.70 1016.58 1016.42 1016.30 1016.22 1016.14 1016.10 1015.98 1015.86 1015.70 1015.50 1015.30 1015.10 1015.02 1014.86 1014.66 1014.58 1014.62 1014.54 1014.42 1014.30 1014.14 1013.98 1013.86
1011.78 1011.86 1011.94 1012.30 1012.94 1013.58 1014.06 1014.54 1014.70 1015.06 1015.38 1015.94 1016.22 1016.46 1016.58 1016.86 1017.02 1017.14 1017.26 1017.46 1017.62 1017.78 1017.94 1018.02 1018.14 1018.18 1018.14 1018.02 1017.94 1017.90 1017.78 1017.62 1017.50 1017.30 1017.06 1016.86 1016.66 1016.50 1016.42 1016.34 1016.30 1016.14 1015.98 1015.86 1015.78 1015.74 1015.62 1015.62 1015.38 1015.14 1014.98 1014.74 1014.58 1014.46 1014.06 1014.14 1014.14 1014.06 1013.98 1013.86 1013.78 1013.70 1013.62
1011.98 1011.98 1012.06 1012.26 1012.82 1013.34 1013.86 1014.38 1014.74 1015.02 1015.18 1015.90 1016.06 1016.18 1016.38 1016.58 1016.86 1016.98 1017.10 1017.34 1017.66 1017.78 1017.82 1017.94 1018.06 1018.10 1018.02 1017.94 1017.86 1017.74 1017.58 1017.42 1017.14 1016.98 1016.62 1016.38 1016.30 1016.10 1016.02 1015.90 1015.74 1015.62 1015.46 1015.30 1015.30 1015.26 1015.22 1015.26 1015.02 1014.82 1014.66 1014.42 1014.18 1013.94 1013.58 1013.74 1013.66 1013.42 1013.46 1013.30 1013.26 1013.22 1013.18
1011.46 1011.50 1011.74 1012.10 1012.42 1013.02 1013.66 1014.18 1014.74 1015.02 1015.26 1015.58 1015.66 1016.14 1016.38 1016.38 1016.70 1017.02 1017.18 1017.38 1017.66 1017.70 1017.86 1017.94 1018.02 1017.98 1017.90 1017.78 1017.66 1017.50 1017.34 1017.14 1016.86 1016.54 1016.34 1016.02 1015.90 1015.82 1015.66 1015.54 1015.42 1015.26 1015.06 1014.82 1014.82 1014.78 1014.78 1014.82 1014.58 1014.38 1014.34 1014.18 1013.74 1013.38 1013.10 1013.42 1013.22 1013.06 1013.02 1012.90 1012.70 1012.78 1012.66
1011.70 1011.82 1012.42 1013.02 1013.02 1012.98 1013.58 1014.22 1014.66 1015.06 1015.38 1015.50 1015.62 1016.06 1016.34 1016.50 1016.50 1016.74 1017.42 1017.58 1017.50 1017.70 1017.82 1017.90 1017.90 1017.82 1017.74 1017.54 1017.42 1017.26 1017.10 1016.98 1016.58 1016.18 1015.98 1015.74 1015.42 1015.26 1015.26 1015.10 1015.02 1014.94 1014.78 1014.58 1014.46 1014.34 1014.26 1014.26 1014.10 1013.86 1013.94 1013.66 1013.30 1012.82 1012.82 1012.94 1012.70 1012.78 1012.54 1012.42 1012.18 1012.10 1011.90
1012.58 1012.74 1012.78 1012.78 1012.90 1013.22 1013.62 1014.14 1014.78 1015.02 1015.14 1015.74 1015.86 1016.14 1016.42 1016.54 1016.62 1016.74 1017.10 1017.30 1017.46 1017.46 1017.62 1017.70 1017.66 1017.58 1017.42 1017.30 1017.14 1017.06 1016.86 1016.74 1016.38 1015.98 1015.54 1015.34 1015.22 1015.02 1014.78 1014.66 1014.46 1014.38 1014.30 1014.14 1014.02 1013.90 1013.82 1013.74 1013.74 1013.50 1013.26 1012.98 1012.66 1012.42 1012.62 1012.46 1012.22 1012.42 1012.14 1011.90 1011.70 1011.46 1011.26
1012.10 1012.90 1013.06 1012.74 1012.82 1013.30 1013.98 1014.22 1014.46 1014.78 1015.30 1015.46 1015.54 1015.82 1016.34 1016.70 1016.74 1016.78 1016.98 1017.10 1017.10 1017.22 1017.34 1017.42 1017.42 1017.26 1017.14 1016.98 1016.90 1016.82 1016.70 1016.38 1016.14 1015.78 1015.30 1015.02 1014.90 1014.70 1014.46 1014.22 1013.98 1013.78 1013.66 1013.50 1013.38 1013.26 1013.14 1013.06 1012.98 1012.86 1012.34 1012.38 1012.26 1012.30 1012.26 1012.10 1011.94 1011.82 1011.58 1011.42 1011.26 1011.02 1010.74
1012.50 1013.02 1013.06 1012.62 1012.78 1013.46 1014.26 1014.38 1014.86 1015.02 1015.02 1015.18 1015.34 1015.66 1016.34 1016.78 1016.66 1016.58 1016.62 1016.66 1016.94 1017.14 1017.26 1017.30 1017.18 1017.02 1016.86 1016.74 1016.54 1016.42 1016.30 1016.06 1015.82 1015.70 1015.30 1014.78 1014.54 1014.18 1013.90 1013.66 1013.34 1013.22 1013.10 1012.90 1012.74 1012.62 1012.50 1012.38 1012.30 1011.98 1011.86 1011.90 1011.90 1011.98 1011.98 1011.78 1011.66 1011.54 1011.22 1011.02 1010.90 1010.54 1010.22
1012.86 1012.90 1012.54 1012.58 1013.02 1013.30 1014.06 1014.34 1014.62 1014.78 1014.98 1015.02 1015.30 1015.66 1016.38 1016.58 1016.46 1016.38 1016.38 1016.46 1016.74 1017.02 1017.14 1017.18 1016.94 1016.70 1016.54 1016.42 1016.26 1016.10 1015.90 1015.74 1015.62 1015.42 1015.10 1014.66 1014.14 1013.82 1013.46 1013.18 1012.90 1012.70 1012.54 1012.34 1012.18 1012.02 1011.86 1011.78 1011.54 1011.30 1011.26 1011.10 1011.26 1011.34 1011.34 1011.14 1011.06 1010.82 1010.70 1010.46 1010.26 1009.94 1009.70
Wind_Speed
7 7 5 4 2 1 2 1 0 0 1 0 1 1 2 3 3 3 3 4 5 4 4 5 5 3 5 4 5 4 5 6 5 5 3 5 5 4 6 4 3 3 4 4 5 5 5 6 8 5 3 3 3 3 4 5 6 6 6 7 8 7 7
5 4 3 1 3 1 3 0 0 1 1 1 0 0 1 2 3 3 4 4 4 4 5 5 4 5 6 5 6 7 6 6 5 3 3 4 4 4 5 4 4 3 2 3 4 4 4 5 6 5 7 4 3 4 4 3 4 4 5 6 7 8 8
4 2 4 4 4 2 4 2 1 0 1 1 1 0 0 2 3 4 4 4 4 4 4 5 4 5 5 5 4 4 4 5 4 5 4 3 3 3 3 3 3 4 3 2 2 2 4 6 8 6 5 6 8 6 3 4 3 4 5 5 6 7 7
5 5 4 3 3 2 3 4 2 2 0 1 2 1 1 0 2 2 3 4 3 3 4 5 5 4 4 4 3 4 4 5 4 4 4 4 4 4 4 4 4 5 4 4 6 6 5 5 5 6 4 4 6 9 7 5 5 6 6 5 6 7 7
8 7 8 7 6 6 4 5 3 1 1 0 0 1 0 1 1 3 3 4 4 4 4 3 3 4 3 3 4 4 3 3 3 3 3 4 4 3 4 4 3 4 4 5 6 6 7 6 7 8 7 6 6 6 6 5 5 6 6 6 6 7 8
7 7 7 7 6 6 6 4 3 3 2 1 2 1 2 1 1 2 3 3 3 3 3 3 3 3 3 4 3 3 3 3 3 3 4 3 3 3 3 2 2 3 3 3 4 6 6 6 6 7 5 5 7 8 6 4 4 3 4 5 5 6 7
7 7 7 7 7 6 7 6 6 6 6 5 3 4 3 1 1 3 3 3 3 2 1 2 3 3 3 3 3 3 3 2 3 3 3 2 3 2 2 3 3 3 2 3 4 4 5 7 7 7 8 6 6 7 6 4 4 5 3 4 6 6 6
8 7 7 7 7 7 6 6 6 4 6 5 5 4 1 2 3 4 4 4 3 2 1 2 2 2 1 2 1 1 1 1 3 2 2 2 2 1 2 2 2 4 3 3 4 4 3 4 5 6 7 10 7 5 6 3 5 6 9 5 3 4 4
7 7 6 6 6 7 7 7 7 6 5 4 3 2 2 3 4 4 3 3 2 2 2 2 3 3 3 2 2 1 2 0 1 1 1 1 1 0 1 1 0 2 3 4 4 4 4 4 4 4 6 7 9 8 6 7 3 5 5 6 4 5 5
8 9 9 9 8 6 6 6 6 6 4 3 4 3 4 3 3 3 3 2 2 2 1 1 1 1 1 1 1 2 2 0 1 0 0 0 0 0 1 1 1 1 2 2 3 4 4 4 4 4 5 7 8 9 8 7 6 5 2 2 3 3 3
10 9 8 9 7 7 5 5 4 5 5 5 5 4 4 4 3 3 3 1 1 1 1 1 0 0 0 1 1 1 2 0 0 0 1 1 1 1 1 1 1 2 2 2 3 3 3 3 4 4 5 5 6 8 8 10 10 5 6 2 4 5 3
7 7 7 7 7 7 7 7 6 6 4 4 5 5 4 4 4 3 3 1 0 1 1 2 1 2 1 2 2 2 2 1 0 1 1 0 1 1 1 2 2 2 2 2 2 3 3 3 4 4 4 4 4 5 8 9 11 5 4 6 4 3 3
8 8 7 8 8 8 8 7 6 5 7 5 5 5 5 4 4 3 1 0 0 1 1 3 2 3 3 2 2 3 3 1 1 2 3 1 2 2 2 2 3 3 3 2 3 3 3 3 3 4 4 4 4 4 5 8 10 12 6 6 7 6 5
8 7 7 8 9 8 7 7 8 7 5 6 6 5 5 4 4 3 1 0 1 1 2 4 3 2 3 3 3 3 3 3 3 3 3 3 2 3 3 3 3 3 3 3 3 3 3 3 2 3 3 4 5 4 5 6 9 10 9 5 5 5 6
9 8 9 8 8 8 8 8 7 6 7 6 6 6 5 4 4 3 2 1 1 1 2 2 3 3 3 4 4 3 3 3 4 4 4 4 4 4 3 4 4 4 4 4 3 3 3 3 3 3 3 4 5 5 4 6 7 7 10 7 6 6 6
8 9 10 9 9 9 8 7 7 8 7 6 4 6 6 5 5 4 3 2 1 1 1 1 1 1 1 1 3 4 3 3 4 5 5 5 5 4 5 4 5 4 3 4 4 3 3 3 2 3 4 4 5 5 4 6 7 8 8 9 6 6 4
8 9 10 9 9 8 8 7 7 7 7 6 7 4 6 6 5 4 4 2 1 1 1 1 1 0 1 1 2 3 3 3 3 4 5 5 6 5 5 5 5 4 4 4 4 4 4 3 3 4 4 4 4 4 4 5 5 6 6 8 7 7 7
10 10 10 8 9 8 8 8 7 8 7 7 6 6 4 4 4 4 5 4 3 3 3 2 1 1 1 1 2 2 3 3 3 4 4 5 6 6 5 5 5 4 4 5 5 5 4 4 6 6 6 5 4 4 4 3 4 6 7 9 9 6 6
11 12 10 8 9 8 8 8 7 6 8 7 5 5 6 4 5 5 4 4 4 4 3 3 3 2 2 1 2 2 2 3 3 4 4 4 4 5 6 6 5 5 6 7 7 6 5 7 7 6 6 6 6 5 4 4 3 4 6 8 9 10 5
12 11 10 9 7 7 8 8 8 8 6 7 6 5 4 5 4 5 4 4 4 4 4 3 3 2 2 2 2 2 3 3 4 4 4 4 4 4 4 5 5 5 6 6 7 7 7 7 6 7 6 6 5 5 5 4 4 4 4 6 8 8 8
11 10 8 8 8 8 7 8 7 6 6 6 6 5 5 5 4 4 5 5 4 3 3 2 2 2 2 2 2 3 4 4 5 4 5 5 5 5 5 6 6 6 7 7 7 8 7 8 6 7 6 5 6 7 7 7 7 6 5 6 7 9 7
2 6 8 9 10 9 8 8 7 7 6 6 6 6 5 5 5 4 4 4 4 4 4 2 1 1 2 3 2 4 4 5 6 6 6 6 6 6 6 6 6 7 8 11 13 11 10 9 7 8 7 5 7 8 8 8 8 7 7 7 8 7 8
2 4 7 8 8 9 8 7 7 7 6 6 6 5 5 4 5 5 5 4 4 3 2 1 1 3 3 2 4 4 5 5 5 6 6 7 6 6 7 6 7 12 14 14 13 13 13 13 12 10 9 9 9 9 9 9 9 8 8 9 9 8 9
6 5 5 7 5 5 7 6 6 6 6 6 6 5 5 4 4 4 6 5 4 2 1 0 1 3 5 7 4 4 4 5 5 6 6 6 7 7 6 6 6 8 11 11 11 13 13 13 13 13 14 14 12 11 10 10 10 8 8 9 8 8 9
10 11 11 12 13 10 8 7 6 6 6 6 5 4 4 4 5 5 5 4 3 1 0 2 2 4 6 7 7 5 4 5 5 5 6 6 6 6 7 7 6 6 7 8 9 8 11 13 14 15 15 15 15 15 14 12 11 10 9 9 10 9 8
11 11 11 10 10 10 9 8 7 7 7 5 5 5 5 5 5 4 5 5 3 2 1 4 5 6 7 7 9 8 5 5 6 6 7 7 7 7 7 8 8 7 6 11 12 9 8 9 12 15 15 16 17 17 17 18 18 15 12 12 11 12 11
11 10 9 9 9 8 8 8 7 6 7 6 6 5 5 5 4 4 4 4 3 2 2 5 7 8 7 9 10 9 5 6 7 7 8 8 8 8 8 9 9 9 6 7 7 8 8 9 9 10 10 10 10 12 15 16 18 20 18 14 13 14 11
9 9 9 11 12 11 11 9 9 8 9 9 8 8 7 6 5 5 4 4 3 3 3 7 8 8 8 9 11 10 6 6 7 7 8 8 9 9 9 9 9 10 9 8 7 8 9 9 9 10 10 10 10 10 10 10 10 9 10 10 13 14 13
11 13 13 12 12 12 10 10 9 7 7 6 6 6 4 5 5 5 5 4 3 3 4 7 7 8 10 11 13 8 6 7 8 8 8 8 8 8 8 9 9 10 10 9 10 13 13 10 10 11 12 11 11 11 11 11 13 14 13 11 10 11 10
12 12 12 12 11 10 9 7 7 7 8 8 8 7 7 5 5 5 4 3 3 3 3 5 7 9 10 13 10 7 7 8 7 8 9 8 8 8 8 8 9 9 10 10 11 13 14 13 11 12 12 12 11 11 12 9 13 17 18 19 21 21 21
10 11 11 13 12 10 8 7 7 7 9 8 7 7 6 5 4 4 4 4 3 3 3 5 8 10 12 13 12 9 7 8 9 8 9 8 7 8 8 15 15 11 11 11 12 13 13 11 11 11 11 12 13 12 12 8 9 10 15 18 20 20 20
11 11 11 11 12 12 10 9 7 6 7 7 6 5 5 5 4 3 3 2 2 1 2 4 8 10 12 13 11 7 8 8 9 9 9 9 7 8 8 10 16 16 14 14 16 15 15 13 12 12 11 12 13 13 10 6 10 9 8 10 11 11 12
6 9 10 9 7 10 8 8 7 7 6 6 6 5 4 4 4 3 2 1 0 0 2 4 5 11 12 13 13 10 7 8 10 10 9 10 10 8 8 8 10 13 15 16 17 19 19 18 15 13 12 14 16 18 8 9 11 9 10 10 11 11 14
8 8 8 10 9 8 8 8 7 6 6 3 4 4 3 3 3 1 0 0 1 2 2 4 6 11 12 13 14 13 8 8 9 10 10 10 9 10 9 8 8 12 18 19 20 20 20 19 19 16 13 12 11 10 9 10 10 12 12 11 10 11 11
12 8 6 9 9 8 5 7 7 6 6 6 4 4 3 3 2 0 1 1 1 3 4 6 6 8 12 14 15 16 10 9 10 11 12 9 9 9 9 9 8 11 15 17 18 19 20 20 21 15 16 17 18 16 14 11 10 9 10 11 12 12 11
9 8 7 9 10 7 5 5 4 5 5 4 4 4 4 3 2 0 2 3 2 3 4 5 8 8 11 14 16 16 16 14 15 13 12 13 11 11 10 12 13 18 20 21 21 22 22 22 20 17 21 21 21 21 19 14 14 13 13 12 12 13 13
6 7 9 10 9 9 6 4 4 5 5 6 6 3 2 2 1 0 2 5 6 5 5 5 7 11 11 14 15 17 17 17 17 12 12 11 11 10 10 10 12 17 19 20 22 21 21 20 17 21 21 23 22 21 15 14 13 14 14 14 14 14 14
Wind_Direction
171 191 202 210 213 207 137 182 42 28 354 8 103 65 100 112 97 72 70 72 71 73 69 63 60 49 55 42 49 59 50 46 50 57 37 24 26 355 350 340 331 320 278 254 245 237 268 289 298 302 272 281 313 255 236 241 232 220 210 212 219 217 215
174 181 171 168 166 183 145 72 106 320 356 14 24 73 67 108 112 111 88 71 70 67 77 74 65 58 58 55 44 43 45 41 39 38 56 34 29 16 349 359 321 277 271 260 267 268 281 287 282 273 294 323 313 280 275 257 263 254 238 222 216 216 214
161 128 137 160 180 170 173 214 265 323 347 7 9 20 31 57 100 107 100 91 89 84 78 84 80 69 63 62 61 65 59 59 38 41 46 39 45 16 9 337 0 346 333 294 266 273 250 253 280 292 309 319 309 295 315 297 278 261 253 244 229 220 218
168 154 142 176 170 155 183 226 241 242 340 303 346 11 18 49 75 71 92 98 91 82 84 80 76 86 86 90 84 73 66 71 57 54 38 33 37 34 22 16 10 8 346 328 328 324 306 284 279 278 279 262 265 285 284 283 276 269 253 236 236 238 229
164 167 173 182 188 185 192 204 233 322 284 325 17 359 351 11 56 48 56 68 70 76 78 94 91 93 95 88 73 72 74 74 70 67 62 40 30 35 27 16 15 355 351 347 339 327 326 311 298 297 295 299 277 254 282 291 267 258 256 241 233 232 231
171 175 182 184 185 184 189 196 188 213 257 290 267 206 267 235 109 92 82 82 71 75 92 76 75 81 86 91 96 89 78 65 67 73 64 45 52 47 8 2 10 8 348 332 330 330 322 321 319 313 301 296 285 291 286 288 291 283 269 270 243 237 243
176 182 188 187 189 188 183 190 189 191 194 208 216 217 214 159 127 137 121 119 128 133 97 88 80 86 86 86 89 80 72 107 93 80 82 63 52 41 23 10 353 347 334 331 326 328 332 332 330 325 321 307 285 281 286 279 271 293 275 250 254 246 239
176 184 194 191 182 184 194 189 198 186 185 204 195 227 189 160 140 132 136 139 156 155 132 91 85 86 88 54 70 87 79 115 107 108 101 94 49 21 10 353 338 338 333 327 327 317 315 309 309 315 319 317 307 288 282 263 274 239 264 277 265 264 242
179 181 189 193 194 190 187 187 193 191 197 183 201 170 178 141 144 127 116 128 128 93 70 62 43 35 34 24 353 31 336 135 99 82 133 104 66 351 288 279 16 311 315 320 317 306 308 301 299 297 305 307 309 302 304 291 254 257 243 263 271 246 252
179 182 190 195 193 194 190 193 186 194 177 173 174 173 151 157 143 141 130 143 140 124 85 70 47 28 33 12 344 334 321 92 125 127 171 105 224 204 269 276 272 249 281 299 310 314 313 316 312 305 304 307 309 299 299 291 277 273 285 217 268 289 256
189 193 190 191 186 180 194 191 179 154 184 183 159 159 145 145 150 140 144 122 53 33 14 346 56 72 74 344 283 269 239 166 77 161 175 168 241 237 235 272 260 279 262 280 293 303 312 309 308 313 315 314 314 304 299 292 289 272 281 245 231 263 290
200 195 194 186 176 183 187 187 184 187 163 162 150 144 144 144 142 127 113 106 26 339 346 318 341 325 17 319 301 296 298 12 104 305 269 224 246 211 234 248 255 254 247 260 274 283 286 295 291 293 297 303 306 307 307 301 292 282 186 263 237 254 271
196 193 188 180 185 190 186 181 179 170 184 168 163 156 151 149 148 135 113 107 32 356 320 314 326 306 342 324 322 324 303 343 316 290 281 273 255 256 261 263 257 256 251 244 264 272 277 278 285 300 302 301 292 282 292 297 287 289 297 286 275 266 260
198 193 186 188 186 187 180 179 180 180 159 171 158 157 155 152 149 146 129 141 199 258 282 289 298 324 331 314 312 298 301 316 310 298 306 304 295 282 278 279 278 267 265 271 263 263 265 271 296 297 301 304 300 302 300 303 298 299 301 305 292 286 273
193 186 188 189 189 183 178 178 174 159 170 175 161 160 159 157 150 146 154 191 229 268 292 299 323 356 326 325 314 320 317 315 311 302 314 303 300 290 281 287 283 283 272 260 263 264 253 268 284 304 299 294 297 295 295 293 292 292 295 302 302 306 297
190 191 190 190 188 182 180 173 168 165 169 165 171 158 163 160 161 154 158 186 191 222 258 273 288 292 304 300 302 311 309 311 302 300 302 292 290 290 293 285 287 281 278 274 269 264 258 258 264 282 281 276 278 282 294 294 293 294 298 297 313 304 304
189 193 195 193 188 182 174 171 168 166 165 158 163 175 160 163 153 150 161 165 163 182 195 225 257 192 232 240 270 282 300 302 295 290 288 288 288 286 277 283 281 280 273 280 285 284 268 259 270 276 275 267 264 276 287 299 322 330 320 310 312 321 323
193 197 199 191 188 177 172 167 168 164 156 161 166 159 160 145 142 148 159 164 168 179 194 183 190 259 259 222 224 253 268 275 279 281 281 282 282 281 278 271 276 276 281 287 290 282 271 279 285 284 282 283 278 275 289 299 310 309 304 297 297 291 303
198 199 195 190 186 177 169 166 164 162 159 160 161 164 158 160 154 159 150 157 163 175 172 168 176 203 221 225 224 232 247 259 268 274 279 283 284 283 284 283 279 276 281 283 284 281 278 278 279 275 275 274 272 270 271 278 269 277 283 288 292 296 293
198 194 188 181 171 172 169 163 160 160 162 153 154 158 163 153 156 144 156 152 166 172 178 175 177 195 219 228 239 246 263 265 264 264 261 265 270 275 281 291 296 296 291 288 287 288 288 281 277 277 272 275 276 279 276 273 274 269 272 284 287 280 286
195 188 174 161 165 170 164 159 160 153 145 145 153 160 161 158 165 147 160 165 172 155 141 150 185 203 217 232 241 260 260 266 266 263 264 264 266 268 268 273 280 287 290 291 288 285 284 284 282 277 273 279 285 287 282 279 273 270 270 276 276 289 284
186 163 167 166 160 162 162 154 150 150 151 148 156 163 161 150 143 136 133 138 133 139 143 177 195 208 252 279 271 274 275 272 270 271 269 266 262 261 262 262 267 267 269 273 279 286 286 286 290 286 279 277 281 282 282 279 275 270 268 269 276 276 284
202 190 173 165 156 146 147 147 149 152 153 152 154 156 152 150 144 146 130 118 124 129 144 185 229 274 303 297 296 291 284 278 274 273 276 277 272 265 262 262 260 263 266 268 269 272 276 277 274 270 278 278 275 274 272 275 272 272 273 268 264 276 279
156 149 129 108 113 141 146 146 154 151 146 147 152 154 139 127 124 128 133 135 124 118 137 198 305 327 312 308 302 290 284 282 278 276 273 273 275 273 271 265 263 264 267 269 269 266 266 267 267 272 274 275 271 266 270 266 264 262 264 264 265 260 263
162 167 175 166 162 161 154 154 152 151 145 143 146 127 114 128 134 132 120 115 119 147 166 237 291 300 300 298 295 288 281 277 274 267 264 264 263 264 265 263 258 254 256 253 257 260 261 260 261 262 261 261 262 262 257 260 268 266 254 262 262 255 259
180 177 175 162 147 147 156 153 149 150 157 147 122 119 136 129 132 130 125 129 137 170 208 245 257 267 273 277 281 283 275 269 269 269 267 265 264 265 263 264 263 251 245 251 262 265 264 266 264 263 262 263 261 257 257 256 253 254 265 260 260 262 248
180 173 162 147 139 137 142 157 160 148 128 120 123 127 135 132 138 137 143 148 170 182 222 247 247 254 262 273 280 282 275 274 272 271 273 270 269 267 264 265 268 267 254 255 255 260 263 264 266 268 266 263 262 260 256 248 248 249 247 251 255 258 256
167 154 152 145 146 157 166 159 153 152 145 147 147 150 150 147 159 157 161 165 160 197 232 247 250 262 274 281 285 288 280 274 272 269 266 264 262 263 263 263 263 265 264 257 249 249 256 258 262 264 265 263 261 262 258 256 250 248 245 243 249 253 258
163 163 160 156 158 159 159 157 149 141 126 130 137 137 143 144 160 173 184 167 163 224 260 270 278 283 287 291 293 295 286 278 276 272 268 265 263 262 261 261 264 265 263 261 257 252 253 259 263 265 266 267 267 264 260 253 253 252 254 256 252 251 251
173 167 160 154 153 148 145 145 140 133 128 139 143 150 162 178 176 174 180 164 175 231 268 287 290 291 294 295 301 294 290 285 277 275 269 267 267 266 265 262 261 264 262 260 256 252 251 252 259 261 265 268 267 268 265 260 250 249 248 250 254 257 259
159 164 162 155 154 149 139 135 139 139 134 145 154 174 176 170 179 171 165 189 192 208 262 284 292 292 295 297 297 296 291 286 282 278 279 272 272 272 266 266 267 266 266 264 259 254 253 250 258 260 265 271 271 267 265 261 260 250 242 244 246 249 251
173 164 158 150 141 137 139 140 137 128 135 149 169 169 167 171 173 181 187 207 217 213 255 289 293 293 295 297 301 297 294 291 290 285 284 284 274 272 274 269 271 273 271 271 268 266 261 258 263 264 267 268 264 262 259 265 262 263 252 250 248 248 252
150 138 125 114 110 115 118 115 126 134 154 161 163 171 168 157 169 191 155 164 246 214 266 280 284 288 293 296 298 299 293 294 291 291 288 288 290 281 273 275 272 268 269 269 267 264 262 257 259 266 266 264 266 268 267 254 251 253 258 252 253 246 249
105 101 112 118 120 117 121 131 138 147 155 143 123 136 152 151 171 229 30 96 210 267 244 277 286 290 295 298 299 302 296 287 286 287 289 286 281 284 279 263 257 257 261 264 265 266 266 265 265 267 260 256 252 267 273 265 263 258 263 260 255 251 249
111 114 135 124 121 123 128 137 151 151 142 147 152 155 140 140 146 244 306 282 255 279 289 284 290 295 298 301 299 296 295 286 285 291 289 285 280 275 275 277 272 266 263 263 262 261 261 260 260 258 259 259 260 259 260 263 265 258 253 255 255 255 253
124 137 142 124 119 128 137 129 127 132 135 143 159 176 147 143 137 41 337 316 303 287 281 286 285 293 298 299 299 297 290 288 286 286 284 284 278 274 270 270 272 272 270 269 268 266 264 262 262 260 262 262 263 264 266 264 264 263 260 259 259 257 253
141 136 136 135 138 138 139 129 130 148 152 156 167 159 134 122 106 76 302 306 304 288 279 275 284 292 297 298 297 293 289 284 281 279 281 280 280 274 275 272 275 277 277 276 274 272 270 267 264 263 260 257 255 255 254 255 250 249 251 250 248 249 249